GALAXY 28 (G-28)

Last updated on Sun Apr 12 2026 00:02:51 GMT+0000 (Coordinated Universal Time)

1 28702U 05022A 26101.37268975 -.00000196 00000+0 00000+0 0 9990 2 28702 3.1272 79.7393 0002757 299.1483 287.7663 1.00270402 51305
UTC large
Height (km)
Speed (km/s)
/
Latitude / Longitude
Inclination (degrees)
Orbital Period (minutes)
Azimuth
Elevation
Range (km)
Doppler Factor

Next 0 passes for location: London (51.5072 / 0.1276)

Sorry there are no passes over London.
GALAXY 28 (G-28)